Las Vegas, NV

11:03 PM PDT on July 25, 2016 (GMT -0700)
McCarran International | | Change Station

Elev 2178 ft 36.07 °N, 115.16 °W | Updated 7 minutes ago

Scattered Clouds
Scattered Clouds
98 °F
Feels Like 98 °F
N
5
Wind Variable Wind from SSE

Today
High -- | Low -- °F
--% Chance of Precip.
Yesterday
High -- | Low -- °F
Precip. -- in
Pressure 29.71 in
Visibility 10.0 miles
Clouds Few 18000 ft
Scattered Clouds 25000 ft
Dew Point 38 °F
Humidity 12%
Rainfall 0.00 in
Snow Depth Not available.
5:42 AM 7:50 PM
Waning Gibbous, 58% visible
METAR KLAS 260556Z 16004KT 10SM FEW180 SCT250 37/03 A2981 RMK AO2 SLP059 HZ VC ALQDS T03670033 10433 20367 50009
Pressure 29.71 in
Visibility 10.0 miles
Clouds Few 18000 ft
Scattered Clouds 25000 ft
Dew Point 38 °F
Humidity 12%
Rainfall 0.00 in
Snow Depth Not available.
5:42 AM 7:50 PM
Waning Gibbous, 58% visible
METAR KLAS 260556Z 16004KT 10SM FEW180 SCT250 37/03 A2981 RMK AO2 SLP059 HZ VC ALQDS T03670033 10433 20367 50009

10-Day Weather Forecast

Almanac

Astronomy

Jul. 25, 2016 Rise Set
Actual Time
Civil Twilight
Nautical Twilight
Astronomical Twilight
Moon
Length of Visible Light
Length of Day
Tomorrow will be .
, % of the Moon is Illuminated

Today's Extremes

State Highs State Lows

Community

WunderPhotos

Upload Photos

1,927,547 photos uploaded!

WunderBlog® & News

Nearby

Air Quality

  Air Quality AQ Index Pollutant
Not available.

Snow Depth

Station Depth Elevation

Earthquake Activity

City Distance Mag. Time & Date
Minimum magnitude displayed is 2.5.

Coastal Water Temperatures

Place Temperature

Stations

Nearby Weather Stations

Station Location Temp. Windchill Dew Point Humidity Wind Precip. Elev Updated Type
                   

Watches & Warnings

There are currently no watches in effect.